Time,TemperatureF,DewpointF,PressureIn,WindDirection,WindDirectionDegrees,WindSpeedMPH,WindSpeedGustMPH,Humidity,HourlyPrecipIn,Conditions,Clouds,dailyrainin,SoftwareType,DateUTC
2013-12-19 00:22:00,28.0,23.0,30.25,South,180,0.0,-999.0,81,-99.99,,,-99.99,,2013-12-19 05:22:00,
2013-12-19 00:42:00,28.0,24.0,30.25,South,180,0.0,-999.0,83,-99.99,,,-99.99,,2013-12-19 05:42:00,
2013-12-19 00:52:00,28.0,24.0,30.24,South,180,0.0,-999.0,83,-99.99,,,-99.99,,2013-12-19 05:52:00,
2013-12-19 01:22:00,28.0,24.0,30.24,South,180,0.0,-999.0,86,-99.99,,,-99.99,,2013-12-19 06:22:00,
2013-12-19 01:52:00,27.0,24.0,30.24,South,180,0.0,-999.0,88,-99.99,,,-99.99,,2013-12-19 06:52:00,
2013-12-19 02:22:00,26.0,23.0,30.24,South,180,0.0,-999.0,89,-99.99,,,-99.99,,2013-12-19 07:22:00,
2013-12-19 02:42:00,26.0,23.0,30.24,South,180,0.0,-999.0,90,-99.99,,,-99.99,,2013-12-19 07:42:00,
2013-12-19 02:52:00,26.0,24.0,30.24,South,180,0.0,-999.0,91,-99.99,,,-99.99,,2013-12-19 07:52:00,
2013-12-19 03:11:00,26.0,23.0,30.24,South,180,0.0,-999.0,90,-99.99,,,-99.99,,2013-12-19 08:11:00,
2013-12-19 03:21:00,26.0,23.0,30.24,South,180,0.0,-999.0,90,-99.99,,,-99.99,,2013-12-19 08:21:00,
2013-12-19 03:42:00,26.0,23.0,30.25,South,180,0.0,-999.0,89,-99.99,,,-99.99,,2013-12-19 08:42:00,
2013-12-19 03:52:00,26.0,23.0,30.25,South,180,0.0,-999.0,89,-99.99,,,-99.99,,2013-12-19 08:52:00,
2013-12-19 04:22:00,25.0,23.0,30.24,South,180,0.0,-999.0,91,-99.99,,,-99.99,,2013-12-19 09:22:00,
2013-12-19 04:43:00,26.0,24.0,30.25,South,180,0.0,-999.0,91,-99.99,,,-99.99,,2013-12-19 09:43:00,
2013-12-19 04:53:00,25.0,22.0,30.25,South,180,0.0,-999.0,90,-99.99,,,-99.99,,2013-12-19 09:53:00,
2013-12-19 05:23:00,25.0,22.0,30.25,South,180,0.0,-999.0,90,-99.99,,,-99.99,,2013-12-19 10:23:00,
2013-12-19 05:43:00,25.0,23.0,30.25,South,180,0.0,-999.0,91,-99.99,,,-99.99,,2013-12-19 10:43:00,
2013-12-19 05:53:00,25.0,23.0,30.25,South,180,0.0,-999.0,91,-99.99,,,-99.99,,2013-12-19 10:53:00,
2013-12-19 06:22:00,24.0,22.0,30.25,South,180,0.0,-999.0,92,-99.99,,,-99.99,,2013-12-19 11:22:00,
2013-12-19 06:42:00,24.0,22.0,30.25,South,180,0.0,-999.0,92,-99.99,,,-99.99,,2013-12-19 11:42:00,
2013-12-19 06:53:00,24.0,22.0,30.25,South,180,0.0,-999.0,92,-99.99,,,-99.99,,2013-12-19 11:53:00,
2013-12-19 07:22:00,24.0,22.0,30.27,South,180,0.0,-999.0,92,-99.99,,,-99.99,,2013-12-19 12:22:00,
2013-12-19 07:42:00,24.0,22.0,30.27,South,180,0.0,-999.0,92,-99.99,,,-99.99,,2013-12-19 12:42:00,
2013-12-19 07:52:00,24.0,22.0,30.27,South,180,0.0,-999.0,92,-99.99,,,-99.99,,2013-12-19 12:52:00,
2013-12-19 08:22:00,24.0,22.0,30.27,South,180,0.0,-999.0,93,-99.99,,,-99.99,,2013-12-19 13:22:00,
2013-12-19 08:42:00,25.0,24.0,30.27,South,180,0.0,-999.0,94,-99.99,,,-99.99,,2013-12-19 13:42:00,
2013-12-19 08:52:00,26.0,24.0,30.27,South,180,0.0,-999.0,93,-99.99,,,-99.99,,2013-12-19 13:52:00,
2013-12-19 09:22:00,29.0,26.0,30.28,South,180,0.0,-999.0,87,-99.99,,,-99.99,,2013-12-19 14:22:00,
2013-12-19 10:22:00,37.0,28.0,30.29,South,180,0.0,-999.0,70,-99.99,,,-99.99,,2013-12-19 15:22:00,
2013-12-19 10:54:00,42.0,29.0,30.29,South,180,0.0,-999.0,60,-99.99,,,-99.99,,2013-12-19 15:54:00,
2013-12-19 11:23:00,44.0,31.0,30.29,South,180,1.0,-999.0,59,-99.99,,,-99.99,,2013-12-19 16:23:00,
2013-12-19 11:42:00,46.0,29.0,30.29,South,180,0.0,-999.0,52,-99.99,,,-99.99,,2013-12-19 16:42:00,
2013-12-19 11:53:00,48.0,30.0,30.28,South,180,1.0,-999.0,49,-99.99,,,-99.99,,2013-12-19 16:53:00,
2013-12-19 12:52:00,54.0,27.0,30.24,SW,221,1.0,-999.0,35,-99.99,,,-99.99,,2013-12-19 17:52:00,
2013-12-19 13:22:00,56.0,28.0,30.21,West,260,1.0,-999.0,34,-99.99,,,-99.99,,2013-12-19 18:22:00,
2013-12-19 13:42:00,57.0,30.0,30.21,WSW,246,1.0,-999.0,35,-99.99,,,-99.99,,2013-12-19 18:42:00,
2013-12-19 13:52:00,59.0,30.0,30.19,WSW,256,1.0,-999.0,33,-99.99,,,-99.99,,2013-12-19 18:52:00,
2013-12-19 14:22:00,58.0,28.0,30.18,WSW,249,1.0,-999.0,31,-99.99,,,-99.99,,2013-12-19 19:22:00,
2013-12-19 14:52:00,59.0,28.0,30.16,West,267,1.0,-999.0,31,-99.99,,,-99.99,,2013-12-19 19:52:00,
2013-12-19 15:22:00,59.0,28.0,30.16,WSW,242,3.0,-999.0,31,-99.99,,,-99.99,,2013-12-19 20:22:00,
2013-12-19 15:42:00,59.0,25.0,30.16,SW,218,2.0,-999.0,27,-99.99,,,-99.99,,2013-12-19 20:42:00,
2013-12-19 15:52:00,59.0,24.0,30.16,SW,215,2.0,-999.0,26,-99.99,,,-99.99,,2013-12-19 20:52:00,
2013-12-19 16:22:00,57.0,24.0,30.16,WSW,238,2.0,-999.0,28,-99.99,,,-99.99,,2013-12-19 21:22:00,
2013-12-19 16:43:00,56.0,26.0,30.16,SW,228,0.0,-999.0,31,-99.99,,,-99.99,,2013-12-19 21:43:00,
2013-12-19 16:53:00,55.0,28.0,30.16,West,262,1.0,-999.0,35,-99.99,,,-99.99,,2013-12-19 21:53:00,
2013-12-19 18:42:00,45.0,27.0,30.14,West,267,0.0,-999.0,48,-99.99,,,-99.99,,2013-12-19 23:42:00,
2013-12-19 18:53:00,44.0,28.0,30.15,West,267,0.0,-999.0,52,-99.99,,,-99.99,,2013-12-19 23:53:00,
2013-12-19 19:12:00,43.0,28.0,30.14,West,267,0.0,-999.0,55,-99.99,,,-99.99,,2013-12-20 00:12:00,
2013-12-19 19:22:00,43.0,28.0,30.14,West,267,0.0,-999.0,55,-99.99,,,-99.99,,2013-12-20 00:22:00,
2013-12-19 19:42:00,42.0,28.0,30.14,West,267,0.0,-999.0,57,-99.99,,,-99.99,,2013-12-20 00:42:00,
2013-12-19 19:52:00,43.0,29.0,30.14,West,267,0.0,-999.0,58,-99.99,,,-99.99,,2013-12-20 00:52:00,
2013-12-19 20:22:00,42.0,29.0,30.14,West,267,0.0,-999.0,59,-99.99,,,-99.99,,2013-12-20 01:22:00,
2013-12-19 20:52:00,41.0,28.0,30.13,West,267,0.0,-999.0,60,-99.99,,,-99.99,,2013-12-20 01:52:00,
2013-12-19 21:22:00,41.0,29.0,30.14,West,267,0.0,-999.0,63,-99.99,,,-99.99,,2013-12-20 02:22:00,
2013-12-19 21:42:00,42.0,29.0,30.14,West,266,0.0,-999.0,59,-99.99,,,-99.99,,2013-12-20 02:42:00,
2013-12-19 21:52:00,41.0,30.0,30.13,West,266,0.0,-999.0,64,-99.99,,,-99.99,,2013-12-20 02:52:00,
2013-12-19 22:22:00,39.0,29.0,30.12,West,266,0.0,-999.0,67,-99.99,,,-99.99,,2013-12-20 03:22:00,
2013-12-19 22:43:00,41.0,29.0,30.12,West,265,0.0,-999.0,62,-99.99,,,-99.99,,2013-12-20 03:43:00,
2013-12-19 22:53:00,42.0,30.0,30.12,WSW,246,1.0,-999.0,61,-99.99,,,-99.99,,2013-12-20 03:53:00,
2013-12-19 23:23:00,44.0,29.0,30.12,SSW,213,1.0,-999.0,55,-99.99,,,-99.99,,2013-12-20 04:23:00,
2013-12-19 23:43:00,44.0,29.0,30.12,SW,232,1.0,-999.0,55,-99.99,,,-99.99,,2013-12-20 04:43:00,